DW3897 Weather Reports


Display with metric or nautical units.
time (UTC)temp
F
wind
direction
speed
MPH
gust
MPH
rain 1hr
in
rain 24hr
in
rain mn
in
humidity
%
barometer
mb
20260506230006 46 317 0.0 0.0 0.01 0.69 0.67 98 1007.5
20260506224604 46 317 0.0 0.0 0.00 0.68 0.66 98 1007.2
20260506223051 46 317 0.0 0.0 0.01 0.68 0.66 98 1007.0
20260506221529 46 317 0.0 0.0 0.01 0.68 0.66 98 1006.7
20260506220035 46 317 0.0 0.0 0.02 0.68 0.66 98 1006.1
20260506214512 46 107 0.0 4.0 0.02 0.68 0.66 98 1006.1
20260506213011 46 107 0.0 2.0 0.02 0.67 0.65 98 1005.8
20260506211557 46 108 0.0 0.0 0.04 0.67 0.65 98 1005.7
20260506210052 46 113 0.0 1.0 0.05 0.66 0.64 97 1005.6
20260506204538 46 122 0.0 3.0 0.05 0.66 0.64 97 1005.4
20260506203034 47 101 0.0 4.0 0.04 0.65 0.63 97 1004.9
20260506201516 47 55 1.0 6.0 0.02 0.63 0.61 97 1004.7
20260506200013 48 244 1.0 9.0 0.00 0.61 0.59 97 1004.5
20260506194554 48 296 0.0 4.0 0.01 0.61 0.59 96 1005.1
20260506193053 50 94 0.0 6.0 0.02 0.61 0.59 97 1004.9
20260506191529 51 61 0.0 1.0 0.05 0.61 0.59 97 1004.8
20260506190027 52 67 0.0 0.0 0.09 0.61 0.59 97 1004.6
20260506184508 53 63 0.0 0.0 0.11 0.60 0.57 97 1004.7
20260506183005 53 63 0.0 0.0 0.11 0.59 0.56 97 1004.7
20260506181613 54 61 0.0 1.0 0.10 0.56 0.54 98 1004.8
20260506180052 54 61 0.0 1.0 0.08 0.52 0.50 98 1004.8
20260506174551 54 61 0.0 0.0 0.08 0.49 0.47 98 1004.7
20260506173120 54 61 0.0 0.0 0.10 0.48 0.46 98 1004.7
20260506171555 54 61 0.0 0.0 0.09 0.45 0.43 97 1004.9
20260506170055 55 63 0.0 2.0 0.10 0.44 0.42 97 1005.1
20260506164548 55 297 0.0 0.0 0.09 0.41 0.39 98 1005.4
20260506163045 55 296 0.0 3.0 0.09 0.38 0.36 98 1005.5
20260506161524 56 253 0.0 0.0 0.09 0.36 0.34 98 1005.4
20260506160034 55 253 0.0 0.0 0.08 0.33 0.31 98 1005.9
20260506154510 55 253 0.0 0.0 0.10 0.32 0.30 98 1006.0
20260506153003 55 253 0.0 0.0 0.09 0.28 0.27 98 1006.1
20260506151546 55 253 0.0 2.0 0.10 0.27 0.25 97 1006.1
20260506150049 55 253 0.0 0.0 0.10 0.25 0.23 97 1006.1
20260506144524 55 253 0.0 0.0 0.09 0.22 0.20 97 1006.6
20260506143025 55 253 0.0 0.0 0.10 0.20 0.18 97 1006.9
20260506141506 55 253 0.0 0.0 0.07 0.17 0.15 97 1007.1
20260506140005 54 253 0.0 0.0 0.07 0.15 0.13 97 1007.3
20260506134548 54 253 0.0 0.0 0.06 0.13 0.11 97 1007.0
20260506133046 55 253 0.0 0.0 0.05 0.10 0.08 97 1006.7
20260506131543 55 284 0.0 0.0 0.06 0.10 0.08 97 1006.8
20260506130037 55 284 0.0 0.0 0.04 0.08 0.06 97 1006.5
20260506124510 55 284 0.0 0.0 0.03 0.06 0.04 97 1006.8
20260506123010 54 284 0.0 0.0 0.02 0.05 0.03 97 1007.2
20260506121551 54 284 0.0 0.0 0.01 0.04 0.02 97 1007.3
20260506120051 54 284 0.0 0.0 0.01 0.04 0.02 97 1007.6
20260506114533 54 284 0.0 0.0 0.01 0.03 0.01 97 1007.2
20260506113033 54 284 0.0 0.0 0.01 0.03 0.01 96 1006.4
20260506111515 54 284 0.0 0.0 0.01 0.03 0.01 96 1006.8
20260506110015 54 284 0.0 0.0 0.01 0.03 0.01 96 1007.1
20260506104557 53 284 0.0 0.0 0.00 0.02 0.00 96 1006.9
20260506103056 53 284 0.0 0.0 0.00 0.02 0.00 96 1006.7
20260506101537 53 283 0.0 0.0 0.00 0.02 0.00 96 1006.8
20260506100039 53 283 0.0 0.0 0.00 0.02 0.00 96 1006.6
20260506094523 53 283 0.0 0.0 0.00 0.02 0.00 96 1006.5
20260506093019 53 283 0.0 0.0 0.00 0.02 0.00 95 1006.5
20260506091501 53 283 0.0 0.0 0.00 0.02 0.00 95 1006.3
20260506090059 53 283 0.0 0.0 0.00 0.02 0.00 95 1006.7
20260506084543 54 283 0.0 0.0 0.00 0.02 0.00 95 1006.8
20260506083039 54 283 0.0 0.0 0.00 0.02 0.00 94 1006.8
20260506081522 54 283 0.0 0.0 0.00 0.02 0.00 94 1007.0
20260506073059 54 283 0.0 0.0 0.00 0.02 0.00 93 1007.5
20260506071551 55 283 0.0 0.0 0.00 0.02 0.00 93 1007.5
20260506061545 56 283 0.0 0.0 0.00 0.02 0.00 92 1007.8
20260506044607 59 283 0.0 0.0 0.02 0.02 0.00 92 1008.0
20260506043051 60 283 0.0 0.0 0.02 0.02 0.00 91 1008.1
20260506041533 61 283 0.0 0.0 0.02 0.02 0.02 88 1007.7
20260506040031 62 283 0.0 1.0 0.00 0.00 0.00 84 1007.7
20260506034513 62 283 0.0 2.0 0.00 0.00 0.00 83 1007.7
20260506033012 63 281 0.0 3.0 0.00 0.00 0.00 83 1007.8
20260506031558 64 286 0.0 4.0 0.00 0.00 0.00 82 1007.5
20260506030052 63 279 1.0 4.0 0.00 0.00 0.00 85 1007.3
20260506024544 62 267 0.0 2.0 0.00 0.00 0.00 85 1007.1
20260506023034 62 273 0.0 0.0 0.00 0.00 0.00 87 1007.1
20260506021517 63 273 0.0 0.0 0.00 0.00 0.00 85 1007.1
20260506020015 63 273 0.0 0.0 0.00 0.00 0.00 83 1007.0
20260506014616 63 273 0.0 0.0 0.00 0.00 0.00 84 1006.6
20260506013056 63 273 0.0 0.0 0.00 0.00 0.00 84 1006.6
20260506011556 63 273 0.0 0.0 0.00 0.00 0.00 83 1006.5
20260506010037 63 273 0.0 0.0 0.00 0.00 0.00 83 1006.2
20260506004537 64 272 0.0 0.0 0.00 0.00 0.00 81 1006.3
20260506003021 64 272 0.0 0.0 0.00 0.00 0.00 78 1005.9
20260506001525 64 272 0.0 0.0 0.00 0.00 0.00 76 1005.7
20260506000020 65 272 0.0 0.0 0.00 0.00 0.00 74 1005.4
20260505234528 66 272 0.0 0.0 0.00 0.00 0.00 73 1005.5
20260505233020 66 272 0.0 0.0 0.00 0.00 0.00 72 1005.4